RH
47 51 54 56 58 61 64 66 67 67 67 66 67 67 67 65 63 62 61 62 64 69 75 80 84 88 91 94 97 99 101 103 103 102 101 101 101 101 101 100 101 100 100 101 101 100 100 100 101 100 98 97 95 93 90 89 88 86 88 89 89 89 88
43 46 50 55 60 65 70 74 78 80 79 76 74 71 71 70 69 67 64 61 59 58 59 60 62 65 68 72 76 80 85 91 95 97 99 100 101 102 103 102 102 102 101 101 101 101 101 101 101 101 101 100 98 98 97 96 94 93 92 92 91 91 89
45 45 47 51 57 64 70 76 81 84 84 84 83 82 81 78 74 69 65 62 61 60 61 61 61 61 60 60 61 62 64 67 71 74 77 81 84 87 91 93 95 97 98 98 99 100 101 102 102 102 101 100 99 98 97 97 98 97 95 93 90 88 87
53 52 52 54 59 65 70 75 78 81 85 89 91 91 89 84 79 75 71 68 66 66 66 66 66 65 64 63 62 62 62 62 63 64 64 65 66 67 68 70 72 74 76 78 80 81 82 83 84 84 83 82 81 80 79 78 78 77 75 73 70 68 67
72 69 68 68 69 71 73 75 76 78 82 86 90 91 90 87 82 79 75 73 73 74 74 74 73 72 72 71 70 69 69 68 68 68 67 67 65 64 63 61 60 60 59 59 60 61 62 63 64 65 64 64 63 63 63 62 61 61 60 59 58 57 57
91 90 90 89 88 86 83 81 81 83 85 88 90 90 88 85 82 80 79 78 79 80 81 80 80 80 82 83 85 85 85 84 82 79 76 74 71 68 65 62 60 58 56 55 55 55 55 56 58 60 61 60 60 60 60 61 61 60 59 58 57 57 56
95 99 101 102 103 103 100 98 96 97 98 97 96 93 92 90 89 89 89 89 89 90 91 92 92 93 94 97 100 100 99 99 98 96 93 90 86 81 76 72 68 64 60 58 57 57 59 61 63 64 65 64 62 60 58 56 57 57 57 56 56 56 56
88 95 101 104 106 107 108 108 109 109 109 106 103 101 100 99 98 100 101 102 103 103 104 105 103 103 104 105 107 106 104 105 104 102 101 96 92 89 84 79 75 72 69 67 67 67 67 67 66 64 63 61 59 57 54 52 52 53 55 56 57 58 59
82 88 94 99 101 103 106 109 110 111 110 109 110 110 110 109 108 109 109 109 110 109 107 107 105 104 105 105 105 103 103 104 102 99 96 91 88 86 83 82 81 79 78 76 74 72 68 66 63 61 60 59 58 57 55 55 55 55 55 56 57 57 57
77 80 85 88 92 96 101 103 105 106 108 109 109 107 107 108 108 108 107 106 108 107 104 104 103 102 103 102 103 102 100 99 96 93 91 89 88 88 86 87 86 84 81 77 74 71 67 65 63 61 60 58 57 56 54 54 54 54 53 52 52 52 52
72 75 77 80 82 84 88 90 94 100 105 108 108 104 102 103 102 102 102 102 104 103 101 102 101 101 102 100 99 97 94 93 92 93 93 92 94 94 92 91 88 83 79 75 71 69 66 63 61 58 56 54 52 51 51 51 51 51 50 49 48 48 49
72 73 74 75 78 79 82 85 88 94 100 105 108 108 104 101 100 100 101 101 102 102 101 101 100 98 97 94 93 93 93 94 96 98 99 99 99 98 94 90 84 78 74 70 66 63 61 58 56 54 53 51 50 50 50 51 51 50 50 49 50 52 55
77 77 76 76 78 80 84 88 91 95 99 103 109 111 109 106 105 104 102 101 101 101 101 101 100 100 99 99 100 102 103 104 105 105 103 101 96 91 85 79 73 68 65 62 61 60 60 59 57 57 58 57 55 56 57 58 60 61 62 65 68 70 73
89 90 90 89 89 90 91 94 97 100 104 106 108 111 113 113 112 111 109 107 106 107 106 106 106 106 106 107 106 106 107 107 105 101 96 90 84 78 73 69 65 62 61 61 62 65 70 73 73 74 77 76 73 72 73 74 77 79 80 80 79 77 76
99 102 104 103 103 104 102 102 104 106 108 109 109 110 112 113 114 114 113 112 110 109 109 108 107 106 106 106 105 102 102 100 94 89 84 79 75 72 69 68 66 65 69 74 78 80 85 90 92 91 92 92 89 87 85 83 82 79 74 68 65 62 60
103 104 106 106 105 105 103 102 103 104 104 105 105 104 105 106 107 108 107 106 105 104 104 103 103 102 100 99 97 93 91 87 83 81 80 78 78 78 80 82 82 84 89 93 95 95 95 97 98 95 92 89 84 79 73 68 63 59 53 48 47 47 48
102 102 102 102 101 101 101 101 101 101 101 101 101 101 101 101 102 102 101 101 100 99 99 98 97 96 95 92 90 88 86 85 85 87 88 89 91 93 97 99 98 98 101 100 100 100 97 92 89 83 76 70 63 57 52 49 48 48 46 44 44 46 46
101 100 100 100 100 100 100 100 100 101 100 101 100 100 101 100 101 101 100 100 99 98 98 98 98 98 97 97 96 95 95 96 96 98 98 99 100 101 103 105 103 101 101 99 96 92 85 78 72 66 60 56 52 49 46 45 45 46 46 45 44 44 44
101 100 100 100 100 100 100 100 100 100 100 100 100 100 100 100 100 100 100 100 100 100 101 101 102 102 101 101 101 100 100 101 101 101 101 102 102 101 103 104 101 98 95 90 85 79 72 67 63 60 58 56 53 51 47 44 43 43 42 42 40 38 37
100 100 100 100 101 101 101 101 101 100 101 100 100 100 100 100 100 100 100 101 101 101 101 101 102 102 101 101 101 100 99 98 98 97 98 98 97 96 96 95 92 88 83 79 75 71 67 65 63 60 58 55 52 50 46 43 41 39 37 35 33 31 30
100 100 100 100 100 100 100 101 101 101 102 101 100 101 101 101 101 101 101 101 101 101 102 101 101 101 100 101 102 101 100 98 97 94 92 90 88 87 86 84 81 78 75 71 69 67 65 63 60 57 53 50 47 44 41 37 35 33 31 30 29 29 29
99 100 100 100 100 100 100 101 100 100 101 101 101 102 101 101 102 101 101 102 103 103 102 101 100 99 99 99 99 98 97 95 94 91 87 85 83 81 79 77 73 70 67 65 63 61 58 55 52 48 45 41 38 35 33 32 31 31 31 31 30 30 29
100 100 100 100 100 100 100 100 100 101 101 101 102 102 103 104 104 102 102 105 106 106 104 102 101 100 100 98 96 93 90 88 87 85 82 79 75 72 68 65 62 59 57 55 53 51 48 44 40 38 36 34 33 32 32 33 33 34 34 33 30 28 26
100 100 101 101 101 100 101 101 100 101 101 102 102 102 103 105 104 102 104 107 108 108 108 107 105 102 99 95 90 86 83 81 79 78 74 69 65 61 58 55 52 50 47 45 42 40 38 37 36 36 37 36 36 36 36 35 34 33 31 29 27 25 23
101 101 100 101 101 101 102 102 101 101 102 103 104 104 103 104 103 103 105 108 109 109 107 104 100 94 89 85 80 77 74 72 69 65 61 57 54 50 48 45 42 41 39 39 39 40 41 43 44 43 41 40 38 36 34 32 30 29 27 26 25 24 24
97 100 101 101 101 101 101 102 101 100 100 101 102 102 101 100 99 99 99 99 99 97 93 88 83 78 74 70 66 63 60 57 54 51 48 46 44 42 42 41 41 42 44 45 47 48 48 47 44 41 39 36 34 32 29 28 27 26 26 26 27 29 30
83 86 89 91 93 94 94 95 96 97 97 96 94 92 90 87 85 83 81 79 77 74 71 68 65 61 59 56 53 52 50 48 47 46 45 45 45 45 45 46 47 48 48 48 48 46 45 42 38 35 33 31 29 28 28 28 29 30 31 32 32 33 31
84 82 82 81 81 81 80 81 81 82 83 82 80 77 76 73 70 67 65 62 60 58 56 55 54 52 51 50 49 49 49 49 49 50 50 50 49 49 48 47 46 46 45 44 42 41 39 37 34 31 30 30 30 32 32 33 35 35 35 33 30 26 23
93 93 92 90 88 86 85 83 80 77 75 73 71 69 67 65 63 61 59 58 57 56 57 57 57 57 56 56 57 57 57 58 58 57 57 56 54 52 50 48 46 44 42 40 37 35 34 33 33 33 34 34 36 37 38 38 36 33 29 24 21 18 16
100 100 100 100 100 98 96 94 91 87 85 83 82 81 79 76 73 71 71 70 68 68 68 68 67 67 66 65 64 64 63 62 61 60 59 58 56 54 52 50 47 43 40 37 35 35 35 36 38 39 39 40 41 40 37 33 28 23 20 18 16 15 14
102 101 101 102 103 102 102 101 98 95 95 95 95 95 93 90 87 86 87 87 85 84 84 82 80 78 75 73 71 69 68 65 63 60 58 55 54 52 49 47 45 42 41 41 41 42 42 43 43 44 43 42 38 32 27 22 19 17 17 16 14 12 10
104 104 102 101 101 101 102 102 101 99 100 100 101 101 99 97 95 96 97 97 95 95 95 93 89 86 83 79 76 72 69 65 62 58 55 52 51 49 46 45 44 44 46 47 48 48 48 47 46 43 38 32 27 22 20 18 17 15 14 12 10 9 9
106 105 103 102 102 101 101 100 99 99 99 99 99 100 99 98 98 99 98 95 94 94 93 89 85 82 80 77 74 71 68 65 61 57 54 51 49 48 47 48 48 49 50 50 50 50 47 43 38 32 26 23 21 19 18 16 13 12 10 10 9 9 8
103 103 102 101 101 99 96 93 93 94 96 97 97 96 96 96 96 95 93 90 89 88 86 83 81 79 76 73 70 67 64 61 57 54 52 51 51 52 52 52 52 52 51 50 47 43 37 31 26 23 22 20 18 16 14 12 10 10 9 9 9 9 9
102 100 99 99 97 93 90 88 88 92 95 95 94 92 90 89 89 88 86 84 81 79 75 72 69 67 65 63 61 60 59 57 57 56 56 56 56 55 54 53 51 49 45 40 34 29 26 23 22 21 19 16 14 12 11 10 10 10 10 10 11 11 11
105 103 103 105 102 96 92 91 90 91 91 89 87 84 80 77 76 74 72 70 68 65 63 62 62 64 65 65 64 63 62 61 59 58 57 56 55 53 50 46 41 35 31 27 25 24 23 21 19 16 13 12 11 10 10 11 11 11 11 12 11 11 11
Wind_Speed
98 99 101 101 101 101 102 102 103 103 104 105 107 109 111 113 115 117 119 122 124 125 127 129 130 131 131 132 132 132 132 132 132 132 132 132 132 132 133 133 133 133 133 135 136 136 136 136 136 137 137 138 138 138 139 139 139 140 140 140 140 141 141
91 95 98 100 102 102 103 103 103 104 105 105 106 107 108 110 112 113 115 117 118 120 121 123 125 126 127 129 130 131 132 133 134 134 135 135 135 135 136 136 136 136 136 137 138 138 138 139 139 139 140 140 140 141 141 142 142 142 143 143 144 144 145
84 87 91 95 98 101 103 104 105 105 105 105 106 107 108 109 110 111 111 112 113 113 115 116 118 120 121 123 125 126 127 129 130 131 132 133 134 135 136 137 137 138 138 138 139 140 140 140 141 141 142 143 143 143 143 143 144 144 145 145 146 147 147
79 81 83 87 91 95 99 103 105 106 106 107 107 108 109 110 111 111 111 110 110 110 111 112 113 114 116 117 118 120 121 123 124 126 127 129 130 131 133 134 135 135 136 136 137 138 139 139 139 140 141 142 142 142 142 142 142 142 143 144 145 145 145
74 76 78 80 83 87 92 96 100 103 105 107 109 110 111 112 112 112 112 112 111 111 112 113 113 113 114 114 115 115 116 117 119 120 122 123 125 127 128 129 130 131 131 132 132 133 134 135 135 135 136 137 137 137 137 137 137 138 138 138 138 139 139
71 72 73 75 78 81 84 88 92 95 99 103 106 109 111 112 113 113 113 113 113 113 114 114 114 115 115 115 115 115 115 116 117 118 119 120 121 122 123 124 125 125 126 126 126 127 127 128 128 129 130 130 131 130 130 131 131 131 131 131 131 131 132
69 70 71 72 74 76 78 80 83 86 90 94 98 102 105 107 108 109 110 111 112 113 113 114 114 115 115 116 116 116 116 116 117 118 118 119 120 121 121 122 122 122 122 122 122 121 121 121 122 122 123 124 125 125 126 126 125 125 126 126 126 125 125
68 70 71 72 73 74 75 76 78 81 84 87 90 92 95 97 99 100 102 103 104 105 106 107 108 110 111 112 113 114 115 116 116 117 118 118 119 119 119 119 118 118 117 116 116 115 115 115 116 117 118 119 120 120 120 121 120 119 118 118 118 118 118
68 69 71 73 74 74 75 76 77 79 80 81 83 85 87 88 89 91 92 93 94 95 96 97 99 100 102 104 106 108 110 111 113 114 114 114 114 114 113 113 112 111 110 110 110 110 110 111 112 113 113 113 114 114 113 113 113 112 111 111 110 109 110
67 70 71 73 74 75 76 78 78 79 79 79 80 81 82 83 83 84 85 86 87 89 90 91 93 95 96 98 100 102 104 105 106 107 107 107 107 107 106 106 106 106 106 106 106 106 106 106 107 108 108 108 108 108 107 107 106 105 105 104 103 103 105
66 68 71 73 75 76 77 78 78 79 80 80 81 81 82 82 82 83 84 85 86 88 89 90 92 93 95 96 97 99 99 100 101 101 102 103 103 103 103 103 104 104 104 103 102 102 102 103 103 104 104 105 105 104 103 103 102 102 101 101 101 100 101
66 68 70 72 74 75 77 78 79 80 80 81 82 83 83 84 85 86 87 88 89 90 91 92 93 95 95 96 97 97 98 98 99 100 101 101 102 102 102 102 102 101 100 99 99 98 99 100 101 101 102 103 102 102 102 102 102 102 101 101 101 101 101
67 69 70 72 73 75 76 78 79 80 81 82 83 84 84 85 86 88 89 91 92 92 93 94 95 95 96 96 97 97 98 98 99 99 100 100 100 100 100 100 99 98 97 97 97 97 98 100 100 101 102 103 103 103 103 103 103 104 104 103 104 104 104
64 66 68 70 72 74 76 77 79 81 82 83 84 85 86 87 88 89 90 91 92 93 93 94 95 95 96 96 96 97 97 97 97 97 98 98 98 98 98 97 98 97 97 96 97 98 99 101 102 103 104 105 106 106 106 106 106 106 106 106 107 107 108
61 61 62 64 66 69 72 74 77 79 81 83 85 86 88 89 90 90 91 92 92 93 93 93 94 94 94 94 95 94 95 95 95 95 95 95 96 96 97 98 98 98 98 99 100 101 102 104 105 106 107 108 109 110 109 109 109 109 110 110 109 110 111
58 58 59 60 61 63 65 67 70 73 75 78 80 82 84 85 86 87 88 88 88 88 89 89 89 90 91 91 92 92 92 93 93 93 94 94 95 96 98 100 100 100 101 102 104 105 106 108 109 110 111 112 112 113 112 112 111 112 113 112 111 112 114
55 56 57 58 59 60 61 63 65 67 69 71 73 75 76 77 79 80 81 81 82 83 84 85 86 88 89 90 91 91 92 93 93 94 95 96 97 98 100 102 103 104 105 107 108 109 110 111 112 113 114 115 115 115 115 114 113 114 114 114 114 114 116
54 55 57 58 59 60 61 62 64 65 66 68 69 70 71 73 75 76 78 79 81 82 83 85 86 88 89 90 92 92 93 94 95 96 97 98 99 101 103 105 106 106 108 109 110 111 112 113 114 115 116 117 117 117 117 116 115 116 116 117 117 118 119
56 57 59 60 61 62 63 64 65 66 67 68 69 70 72 73 75 77 78 80 81 83 85 86 88 89 91 92 93 94 95 96 97 98 99 100 101 102 104 106 107 108 109 110 112 113 114 115 116 117 118 119 119 120 121 120 120 120 120 120 121 122 123
59 60 62 63 64 65 66 67 68 69 70 71 72 74 75 76 78 79 81 83 84 86 88 89 90 92 93 94 95 97 98 99 100 101 101 103 104 105 106 107 108 110 111 112 113 115 116 118 119 121 122 122 123 124 124 124 124 124 124 124 124 125 126
61 62 64 65 66 67 69 70 71 72 73 74 75 76 78 79 81 82 84 85 87 89 90 92 93 94 95 96 97 99 100 102 103 104 105 106 107 108 109 110 111 112 113 115 116 117 119 121 123 124 125 126 126 126 127 127 127 127 127 126 125 125 126
64 65 66 67 68 69 71 72 73 74 75 77 78 79 80 82 83 85 86 88 90 91 93 94 95 97 98 99 100 102 103 104 106 107 108 109 111 111 112 113 114 115 117 117 119 120 122 124 125 127 128 128 128 128 127 127 127 127 127 127 126 126 127
68 69 69 70 71 72 72 73 75 76 77 78 79 81 83 84 86 87 88 90 92 93 95 96 98 99 101 102 103 104 105 107 108 110 112 113 114 115 116 116 117 118 119 120 121 123 124 126 127 128 128 128 127 126 125 125 125 126 127 129 129 130 131
72 73 73 74 74 75 75 76 77 78 79 80 81 83 84 86 87 89 90 92 94 95 96 98 99 101 103 104 106 107 108 109 111 113 115 116 117 118 118 119 120 120 121 121 122 123 124 125 125 126 125 125 125 124 125 126 127 129 130 132 134 135 137
75 76 77 77 78 78 79 80 81 82 83 83 84 85 86 88 89 91 92 94 95 97 98 100 102 104 106 107 109 110 111 112 114 116 117 118 119 120 120 120 120 120 120 120 121 121 122 123 124 125 125 126 127 127 128 130 132 133 135 137 138 138 138
74 77 79 80 81 82 83 84 85 86 87 88 88 89 90 91 92 94 95 97 98 99 101 103 105 107 109 110 111 112 114 115 116 118 118 119 120 120 120 119 119 119 119 120 121 122 123 125 126 127 128 129 131 132 134 135 136 137 137 136 135 134 133
69 72 76 79 82 85 86 87 88 89 90 91 92 93 94 95 96 98 99 100 101 103 104 105 107 109 111 112 113 114 115 116 117 118 118 118 119 119 119 119 119 120 121 122 123 125 126 128 130 131 132 134 135 136 136 136 135 133 132 131 130 129 129
68 70 72 75 78 81 84 87 89 91 92 93 95 96 97 98 99 100 102 103 104 104 105 107 108 110 111 112 113 114 116 116 117 118 118 119 120 120 120 120 121 122 123 125 126 128 130 132 134 135 135 135 135 134 133 132 131 130 129 128 127 125 124
68 70 72 74 76 78 80 83 85 88 90 92 94 96 98 100 101 102 103 104 105 106 107 108 110 112 113 115 116 117 118 119 120 121 122 123 123 124 125 125 126 128 129 130 131 132 134 134 135 135 134 132 131 130 130 129 128 127 125 124 122 120 118
70 72 73 75 77 79 81 83 84 86 88 90 92 94 97 99 101 102 104 105 106 107 109 111 113 115 116 117 118 119 120 121 122 123 124 126 127 128 130 131 132 133 134 135 136 136 136 135 133 132 131 130 129 128 127 126 124 122 120 118 117 115 112
73 75 76 78 80 82 83 85 86 87 89 91 93 95 97 98 100 101 103 105 106 108 110 112 114 116 117 118 119 121 122 123 125 126 128 129 130 132 133 134 136 137 137 138 138 137 135 134 132 131 130 128 127 125 123 121 119 117 115 113 112 109 107
77 78 79 81 83 85 87 88 89 90 92 94 96 98 99 101 102 103 105 107 108 109 112 114 116 118 119 121 122 124 125 127 129 130 131 132 134 135 137 137 137 137 137 136 135 135 133 132 130 129 127 125 123 121 119 116 114 111 110 108 106 104 102
81 82 84 85 87 89 91 92 93 94 96 97 99 101 103 104 106 107 109 111 112 113 116 118 120 121 123 125 126 128 129 131 133 134 135 136 137 138 138 137 135 134 133 132 132 131 131 129 127 125 123 121 119 116 114 111 108 106 104 103 101 99 97
86 88 89 91 93 94 95 96 97 99 100 102 104 106 107 108 110 112 114 116 117 118 120 122 124 126 127 129 131 132 134 135 136 136 136 135 135 134 134 133 132 131 130 129 129 128 127 125 123 121 119 116 113 110 108 105 103 101 99 97 96 94 92
92 94 95 97 98 100 100 101 102 104 105 107 109 110 111 113 114 116 118 120 122 123 125 126 127 129 130 131 132 133 133 133 133 132 131 131 131 131 131 130 130 129 128 127 125 124 122 120 118 115 112 110 107 105 102 100 98 96 94 92 91 89 87
97 99 101 102 104 105 106 107 108 109 110 112 114 115 116 117 118 120 122 123 124 125 126 127 127 128 128 129 129 129 129 129 129 129 129 129 129 129 129 128 127 126 125 123 121 118 116 113 111 108 106 103 101 99 97 95 93 91 89 87 86 85 83
Wind_Direction
258 258 258 258 258 258 258 258 259 259 258 258 258 257 257 257 257 257 257 258 258 259 259 260 260 261 261 261 261 262 262 263 263 264 265 265 266 266 267 267 267 268 269 269 270 271 271 272 272 272 273 273 273 273 273 273 273 273 273 274 274 274 274
259 258 258 258 258 258 258 258 258 258 258 258 258 259 259 259 259 259 259 259 260 260 260 261 261 262 262 262 262 263 263 263 263 264 264 265 265 266 266 267 267 267 268 269 269 270 271 271 272 272 272 273 273 273 273 274 274 274 274 274 274 274 274
261 260 260 259 258 258 258 258 258 258 258 259 259 259 260 260 260 260 261 261 262 262 262 263 263 263 263 263 264 264 264 264 264 265 265 265 265 266 266 266 267 267 268 268 269 270 270 271 271 272 272 273 273 273 274 274 274 274 274 274 274 274 274
263 263 262 261 260 259 258 258 257 258 258 258 259 259 260 260 261 261 262 262 263 263 264 264 264 264 265 265 265 265 265 265 266 266 266 266 266 266 267 267 267 267 268 268 269 270 270 271 272 272 273 273 273 274 274 274 274 275 275 275 275 275 275
265 264 263 263 262 261 260 259 258 258 258 258 258 259 259 260 261 262 262 263 263 264 264 265 265 265 266 266 266 266 267 267 267 267 267 267 267 268 268 268 268 269 269 269 270 270 271 272 272 273 273 274 274 274 274 275 275 275 275 275 276 276 276
266 265 264 264 263 262 261 261 260 260 259 259 259 259 260 260 261 262 263 263 264 264 265 265 266 266 267 267 267 268 268 268 268 268 269 269 269 269 269 270 270 270 270 271 271 272 272 273 273 273 274 274 274 274 274 274 275 275 275 275 276 276 276
266 266 265 264 264 263 263 263 262 262 261 260 260 260 261 262 262 263 263 264 264 265 265 265 266 266 267 267 268 268 268 269 269 269 270 270 270 271 271 272 272 272 273 273 274 274 274 274 274 274 274 274 274 274 274 274 274 275 275 276 276 276 276
265 265 265 265 264 264 264 263 263 262 262 262 262 262 263 263 263 264 264 265 265 266 266 266 266 266 266 267 267 267 268 268 269 269 270 270 271 272 273 274 274 275 275 275 275 275 275 274 274 274 274 274 274 274 274 274 274 275 275 276 276 277 277
263 263 264 264 264 264 264 263 263 263 263 263 263 264 264 264 265 265 265 265 266 266 266 266 266 266 266 267 267 267 268 268 269 270 271 272 273 274 275 275 276 276 276 276 275 275 275 275 274 274 274 275 275 275 275 275 275 275 275 276 276 277 277
262 262 262 262 263 263 263 263 264 264 265 265 265 265 265 266 266 266 266 267 267 267 267 267 267 267 267 267 268 268 269 270 271 272 273 274 275 276 276 276 276 276 276 275 275 276 276 276 276 276 276 276 276 276 276 276 276 277 277 277 277 277 278
262 262 261 261 261 262 262 263 264 264 265 265 266 266 267 267 267 268 268 268 268 268 268 268 268 268 269 269 270 271 272 273 274 274 275 276 276 276 276 276 276 276 276 276 277 277 277 277 277 277 277 277 277 278 278 278 278 279 279 279 279 279 279
265 264 263 262 262 262 262 263 263 264 264 265 265 266 266 267 267 267 267 268 268 268 268 269 269 270 271 271 272 273 274 275 275 275 276 276 276 276 276 276 276 276 277 277 278 278 279 279 279 279 279 280 280 280 280 281 281 281 281 281 281 281 281
266 265 264 263 263 262 262 262 262 263 263 264 264 265 266 266 266 266 267 267 268 268 269 270 271 271 272 273 274 274 275 275 275 275 275 275 275 276 276 277 277 278 278 279 280 280 281 281 281 281 282 282 282 282 282 282 282 282 282 282 281 281 281
265 265 264 263 263 262 262 262 262 262 263 263 264 264 265 265 266 266 267 268 269 270 271 271 272 273 274 274 275 275 275 275 275 275 275 276 276 277 278 279 279 280 281 281 282 282 282 282 282 282 282 282 282 282 281 281 281 281 281 280 280 280 279
266 266 265 264 263 263 262 262 262 263 263 263 264 265 265 266 267 268 269 270 271 272 272 273 273 274 274 274 274 274 274 274 274 275 276 277 278 279 280 280 281 282 282 282 282 281 281 280 280 280 280 280 280 280 279 279 279 279 279 279 279 279 279
268 268 268 267 267 266 265 265 264 264 264 265 265 266 267 268 269 270 271 272 272 273 273 273 273 273 273 273 273 274 274 275 276 277 278 279 279 280 281 281 281 281 281 280 280 280 279 279 279 278 278 278 278 278 278 278 278 278 278 279 279 279 279
267 268 268 269 269 269 269 269 269 269 269 269 269 270 271 272 272 273 273 273 273 273 273 274 274 274 274 275 275 276 276 277 277 278 278 279 279 279 279 279 279 279 279 278 278 278 278 278 278 278 278 278 278 278 278 279 279 279 280 280 280 280 280
267 268 268 268 269 269 270 270 271 271 272 272 272 273 273 273 273 273 274 274 274 274 274 274 274 274 275 275 275 276 276 276 276 276 277 277 277 277 277 277 277 278 278 278 278 278 278 279 279 279 279 279 279 280 280 280 280 281 281 281 281 281 281
267 267 267 268 268 268 268 268 269 269 270 270 270 270 271 271 271 272 272 272 272 272 272 272 273 273 273 274 274 275 275 275 275 275 275 275 276 276 276 277 277 278 278 278 279 279 279 280 280 280 280 281 281 282 282 283 283 283 283 283 283 282 282
265 266 266 267 267 267 268 268 268 268 268 268 269 269 269 269 270 270 270 270 271 271 271 272 272 273 273 274 274 275 275 275 275 275 275 276 276 276 276 277 277 278 278 279 279 279 280 280 281 281 281 282 282 283 283 284 284 284 284 284 284 283 283
264 265 265 266 267 267 268 268 268 268 269 269 269 269 269 269 269 270 270 271 271 272 272 273 274 274 275 275 275 276 276 276 276 276 276 276 277 277 277 277 278 278 278 279 279 280 280 281 281 281 282 283 283 284 284 285 285 285 285 285 284 283 283
264 264 265 265 266 266 267 267 268 268 269 269 269 269 270 270 270 271 271 272 273 273 274 275 275 275 276 276 276 277 277 277 278 278 278 278 278 278 278 278 279 279 279 280 280 281 281 281 282 282 283 283 284 284 285 285 285 285 285 285 285 285 285
265 265 265 266 266 266 267 267 268 268 268 269 269 270 270 271 271 272 272 273 274 274 275 275 276 276 277 277 277 277 277 278 278 278 278 278 278 279 279 279 279 280 280 281 281 281 282 282 282 283 283 283 284 284 285 285 286 286 286 286 287 287 287
266 266 266 266 266 266 267 267 267 268 268 269 270 270 271 271 272 273 273 274 274 275 276 276 277 277 277 277 277 277 278 278 278 278 278 279 279 279 280 280 280 280 281 281 281 282 282 283 283 284 284 285 285 286 286 286 287 287 287 288 288 288 288
267 267 267 267 267 267 267 267 267 268 268 269 270 270 271 272 272 273 273 274 274 275 275 276 276 276 276 277 277 277 278 278 278 278 278 279 279 280 280 281 281 282 282 283 283 284 284 285 285 286 286 287 287 287 288 288 288 288 288 288 288 288 288
269 268 268 268 268 268 268 268 268 268 268 269 269 269 270 271 271 272 272 273 273 274 275 275 275 276 276 277 277 278 278 279 279 279 280 281 281 282 282 283 284 284 285 285 286 286 286 286 286 287 287 288 288 288 289 289 289 289 288 288 288 288 288
273 272 271 270 269 269 269 269 269 269 270 270 270 270 270 270 271 271 272 272 273 273 274 275 275 276 277 277 278 279 279 280 281 281 282 282 283 284 284 285 285 286 286 286 287 287 287 287 288 288 288 289 289 289 289 289 289 289 289 289 289 289 289
278 277 276 275 274 273 272 271 271 271 271 272 272 272 272 272 272 273 273 274 274 275 276 277 277 278 279 279 280 281 281 282 283 283 284 284 285 285 285 286 286 286 287 287 287 287 288 288 288 289 289 289 290 290 290 290 290 290 290 290 290 289 289
281 281 280 280 279 278 277 277 276 275 275 275 275 275 275 275 276 276 276 277 278 278 279 280 280 281 281 282 282 283 283 284 284 285 286 286 286 287 287 287 288 288 288 288 288 289 289 289 290 290 290 291 291 291 291 291 291 291 291 290 290 290 290
283 282 282 282 282 281 281 281 280 280 280 279 279 279 278 278 279 279 279 280 280 281 281 282 282 282 282 283 283 284 284 285 285 286 286 287 287 288 288 289 289 290 290 290 291 291 291 291 292 292 292 292 292 292 291 291 291 291 291 291 291 291 290
283 282 282 282 282 282 282 282 282 282 282 282 282 281 281 281 282 282 282 282 283 283 283 283 283 283 284 284 285 285 285 286 286 287 287 287 288 288 289 289 290 290 291 292 292 292 292 292 292 292 292 292 292 292 292 292 292 292 292 291 291 291 290
282 282 282 282 282 282 281 281 282 282 282 282 282 282 283 283 283 284 284 284 284 284 284 284 284 284 285 285 285 286 286 286 287 287 287 288 288 289 289 290 290 291 291 291 292 292 292 292 292 292 292 292 292 292 292 292 292 292 292 291 291 291 290
283 283 283 283 282 282 282 282 283 283 283 283 283 283 284 284 284 284 284 284 284 284 284 284 285 285 285 285 286 286 286 287 287 287 288 288 289 289 290 290 290 291 291 291 291 291 292 292 292 293 293 293 293 293 292 292 292 291 291 291 290 290 290
285 285 284 284 284 284 284 284 284 284 285 285 285 285 285 285 285 285 285 285 285 284 284 285 285 285 285 285 286 286 286 286 287 287 288 289 289 289 290 290 290 291 291 291 291 292 292 292 293 293 293 293 292 292 292 292 291 291 291 290 290 290 289
286 285 285 285 285 284 284 285 285 285 285 285 284 284 284 284 284 284 284 284 284 284 285 285 285 285 285 286 286 286 286 287 287 288 289 289 290 290 290 290 291 291 291 292 292 292 292 292 293 292 292 292 292 292 291 291 291 290 290 289 289 289 288
286 286 286 285 285 285 285 285 285 285 285 285 285 285 285 285 285 285 285 285 285 285 285 286 286 286 286 287 287 287 287 288 288 289 289 290 290 290 290 291 291 291 292 292 292 292 292 292 292 292 291 291 291 291 291 290 290 289 289 288 288 288 287